| time (UTC) | temp F | wind direction | speed knots | gust knots | rain 1hr in | rain 24hr in | rain mn in | humidity % | barometer mb |
| 20260905072124 | 57 | 302 | 0.0 | 0.0 | 0.00 | 0.04 | 0.00 | 84 | 1013.4 |
| 20260905071623 | 57 | 302 | 0.0 | 0.0 | 0.00 | 0.04 | 0.00 | 84 | 1013.4 |
| 20260905071123 | 57 | 302 | 0.0 | 0.0 | 0.00 | 0.04 | 0.00 | 86 | 1013.3 |
| 20260905070623 | 57 | 302 | 0.0 | 0.0 | 0.00 | 0.04 | 0.00 | 85 | 1013.4 |
| 20260905070153 | 57 | 300 | 0.0 | 0.0 | 0.00 | 0.04 | 0.00 | 85 | 1013.3 |
| 20260905065654 | 57 | 300 | 0.0 | 0.0 | 0.00 | 0.04 | 0.04 | 85 | 1013.2 |
| 20260905065154 | 58 | 298 | 0.0 | 0.0 | 0.00 | 0.04 | 0.04 | 83 | 1013.1 |
| 20260905064653 | 58 | 298 | 0.0 | 0.0 | 0.00 | 0.04 | 0.04 | 82 | 1013.0 |
| 20260905064153 | 58 | 298 | 0.0 | 0.0 | 0.00 | 0.04 | 0.04 | 83 | 1012.9 |
| 20260905063653 | 58 | 298 | 0.0 | 0.9 | 0.00 | 0.04 | 0.04 | 84 | 1012.9 |
| 20260905063153 | 58 | 298 | 0.0 | 1.7 | 0.00 | 0.04 | 0.04 | 84 | 1013.0 |
| 20260905062653 | 59 | 290 | 0.9 | 1.7 | 0.00 | 0.04 | 0.04 | 84 | 1013.0 |
| 20260905062153 | 59 | 246 | 0.0 | 0.0 | 0.00 | 0.04 | 0.04 | 83 | 1013.0 |
| 20260905061653 | 59 | 246 | 0.0 | 0.0 | 0.00 | 0.04 | 0.04 | 84 | 1013.1 |
| 20260905060653 | 59 | 244 | 0.0 | 0.0 | 0.00 | 0.04 | 0.04 | 84 | 1013.0 |
| 20260905055153 | 60 | 244 | 0.0 | 0.0 | 0.00 | 0.04 | 0.04 | 84 | 1013.0 |
| 20260905054653 | 60 | 244 | 0.0 | 0.0 | 0.00 | 0.04 | 0.04 | 83 | 1013.0 |
| 20260905054153 | 60 | 246 | 0.0 | 0.0 | 0.00 | 0.04 | 0.04 | 85 | 1013.1 |
| 20260905053653 | 60 | 244 | 0.0 | 0.0 | 0.00 | 0.04 | 0.04 | 84 | 1013.0 |
| 20260905053153 | 60 | 244 | 0.0 | 0.0 | 0.00 | 0.04 | 0.04 | 84 | 1013.0 |
| 20260905052653 | 61 | 244 | 0.0 | 0.0 | 0.00 | 0.04 | 0.04 | 84 | 1013.1 |
| 20260905052153 | 61 | 244 | 0.0 | 0.0 | 0.00 | 0.04 | 0.04 | 84 | 1013.2 |
| 20260905051153 | 61 | 244 | 0.0 | 0.0 | 0.00 | 0.04 | 0.04 | 83 | 1013.3 |
| 20260905050653 | 61 | 239 | 0.0 | 0.0 | 0.00 | 0.04 | 0.04 | 83 | 1013.3 |
| 20260905050153 | 61 | 262 | 0.0 | 0.9 | 0.00 | 0.04 | 0.04 | 83 | 1013.3 |
| 20260905045653 | 61 | 262 | 0.0 | 0.9 | 0.00 | 0.04 | 0.04 | 83 | 1013.1 |
| 20260905045154 | 61 | 273 | 0.0 | 0.0 | 0.00 | 0.04 | 0.04 | 83 | 1013.1 |
| 20260905044153 | 62 | 273 | 0.0 | 0.0 | 0.00 | 0.04 | 0.04 | 82 | 1013.0 |
| 20260905043653 | 62 | 279 | 0.0 | 1.7 | 0.00 | 0.04 | 0.04 | 82 | 1012.9 |
| 20260905043153 | 62 | 333 | 0.0 | 1.7 | 0.00 | 0.04 | 0.04 | 82 | 1012.9 |
| 20260905042653 | 62 | 329 | 0.0 | 0.9 | 0.00 | 0.04 | 0.04 | 81 | 1012.9 |
| 20260905042153 | 62 | 227 | 0.0 | 1.7 | 0.00 | 0.04 | 0.04 | 81 | 1013.0 |
| 20260905041653 | 62 | 146 | 0.0 | 1.7 | 0.00 | 0.04 | 0.04 | 81 | 1012.8 |
| 20260905041153 | 63 | 223 | 0.0 | 0.0 | 0.00 | 0.04 | 0.04 | 81 | 1012.9 |
| 20260905040653 | 63 | 223 | 0.0 | 1.7 | 0.00 | 0.04 | 0.04 | 80 | 1012.9 |
| 20260905035654 | 63 | 278 | 0.0 | 1.7 | 0.00 | 0.04 | 0.04 | 80 | 1012.7 |
| 20260905035153 | 63 | 346 | 0.9 | 1.7 | 0.00 | 0.04 | 0.04 | 79 | 1012.6 |
| 20260905034653 | 63 | 214 | 0.0 | 1.7 | 0.00 | 0.04 | 0.04 | 79 | 1012.6 |
| 20260905034153 | 64 | 242 | 0.0 | 2.6 | 0.00 | 0.04 | 0.04 | 78 | 1012.5 |
| 20260905033653 | 64 | 273 | 0.0 | 2.6 | 0.00 | 0.04 | 0.04 | 78 | 1012.4 |
| 20260905033153 | 64 | 251 | 0.0 | 2.6 | 0.00 | 0.04 | 0.04 | 78 | 1012.4 |
| 20260905032653 | 64 | 261 | 0.0 | 2.6 | 0.00 | 0.04 | 0.04 | 77 | 1012.2 |
| 20260905032153 | 65 | 38 | 0.0 | 2.6 | 0.00 | 0.04 | 0.04 | 76 | 1012.2 |
| 20260905031653 | 65 | 269 | 0.0 | 2.6 | 0.00 | 0.04 | 0.04 | 75 | 1012.2 |
| 20260905031153 | 65 | 332 | 0.0 | 2.6 | 0.00 | 0.04 | 0.04 | 75 | 1012.0 |
| 20260905030653 | 66 | 250 | 0.0 | 2.6 | 0.00 | 0.04 | 0.04 | 73 | 1012.0 |
| 20260905030153 | 66 | 303 | 1.7 | 2.6 | 0.00 | 0.04 | 0.04 | 73 | 1011.9 |
| 20260905025653 | 66 | 247 | 1.7 | 1.7 | 0.00 | 0.04 | 0.04 | 72 | 1011.9 |
| 20260905025153 | 67 | 153 | 0.0 | 4.3 | 0.00 | 0.04 | 0.04 | 71 | 1011.9 |
| 20260905024653 | 67 | 309 | 0.0 | 4.3 | 0.00 | 0.04 | 0.04 | 70 | 1011.9 |
| 20260905024153 | 68 | 281 | 0.9 | 3.5 | 0.00 | 0.04 | 0.04 | 68 | 1011.9 |
| 20260905022653 | 70 | 350 | 0.0 | 1.7 | 0.00 | 0.04 | 0.04 | 64 | 1011.8 |
| 20260905022153 | 70 | 351 | 0.0 | 2.6 | 0.00 | 0.04 | 0.04 | 63 | 1011.9 |
| 20260905021653 | 70 | 165 | 0.0 | 2.6 | 0.00 | 0.04 | 0.04 | 62 | 1011.9 |
| 20260905021153 | 71 | 298 | 0.9 | 1.7 | 0.00 | 0.04 | 0.04 | 62 | 1011.9 |
| 20260905020653 | 71 | 342 | 0.0 | 1.7 | 0.00 | 0.04 | 0.04 | 61 | 1011.9 |
| 20260905020153 | 72 | 11 | 0.0 | 1.7 | 0.00 | 0.04 | 0.04 | 61 | 1011.7 |
| 20260905015653 | 72 | 237 | 0.0 | 1.7 | 0.00 | 0.04 | 0.04 | 61 | 1011.7 |
| 20260905015153 | 72 | 281 | 0.0 | 2.6 | 0.00 | 0.04 | 0.04 | 61 | 1011.6 |
| 20260905014653 | 72 | 298 | 0.0 | 7.8 | 0.00 | 0.04 | 0.04 | 61 | 1011.7 |
| 20260905014152 | 73 | 336 | 0.9 | 7.8 | 0.00 | 0.04 | 0.04 | 61 | 1011.6 |
| 20260905013652 | 73 | 211 | 0.0 | 3.5 | 0.00 | 0.04 | 0.04 | 60 | 1011.6 |
| 20260905013153 | 73 | 327 | 1.7 | 4.3 | 0.00 | 0.04 | 0.04 | 60 | 1011.6 |
| 20260905012652 | 74 | 137 | 0.9 | 4.3 | 0.00 | 0.04 | 0.04 | 60 | 1011.6 |
| 20260905012153 | 74 | 281 | 0.0 | 3.5 | 0.00 | 0.04 | 0.04 | 59 | 1011.6 |
| 20260905011152 | 75 | 150 | 0.0 | 6.1 | 0.00 | 0.04 | 0.04 | 58 | 1011.6 |
| 20260905010653 | 76 | 264 | 3.5 | 6.1 | 0.00 | 0.04 | 0.04 | 57 | 1011.6 |
| 20260905010153 | 76 | 290 | 3.5 | 8.7 | 0.00 | 0.04 | 0.04 | 57 | 1011.5 |
| 20260905005652 | 78 | 296 | 6.1 | 8.7 | 0.00 | 0.04 | 0.04 | 56 | 1011.5 |
| 20260905005153 | 78 | 76 | 0.0 | 4.3 | 0.00 | 0.04 | 0.04 | 55 | 1011.5 |
| 20260905004653 | 78 | 200 | 0.0 | 4.3 | 0.00 | 0.04 | 0.04 | 54 | 1011.5 |
| 20260905004153 | 79 | 250 | 0.9 | 3.5 | 0.00 | 0.04 | 0.04 | 54 | 1011.4 |
| 20260905003122 | 79 | 269 | 1.7 | 6.1 | 0.00 | 0.04 | 0.04 | 54 | 1011.4 |
| 20260905002653 | 80 | 292 | 1.7 | 6.1 | 0.00 | 0.04 | 0.04 | 53 | 1011.6 |
| 20260905002153 | 80 | 355 | 2.6 | 3.5 | 0.00 | 0.04 | 0.04 | 52 | 1011.5 |
| 20260905001652 | 80 | 276 | 0.0 | 6.1 | 0.00 | 0.04 | 0.04 | 53 | 1011.5 |
| 20260905001153 | 81 | 337 | 1.7 | 6.1 | 0.00 | 0.04 | 0.04 | 52 | 1011.5 |
| 20260905000653 | 81 | 20 | 1.7 | 6.1 | 0.00 | 0.04 | 0.04 | 52 | 1011.5 |
| 20260905000153 | 81 | 278 | 0.0 | 6.1 | 0.00 | 0.04 | 0.04 | 52 | 1011.5 |
| 20260904235652 | 81 | 246 | 0.0 | 6.1 | 0.00 | 0.04 | 0.04 | 52 | 1011.5 |
| 20260904235153 | 82 | 60 | 3.5 | 5.2 | 0.00 | 0.04 | 0.04 | 51 | 1011.5 |
| 20260904234652 | 82 | 219 | 0.9 | 5.2 | 0.00 | 0.04 | 0.04 | 50 | 1011.5 |
| 20260904234153 | 82 | 309 | 0.9 | 5.2 | 0.00 | 0.04 | 0.04 | 49 | 1011.5 |
| 20260904233652 | 83 | 76 | 0.0 | 5.2 | 0.00 | 0.04 | 0.04 | 49 | 1011.4 |
| 20260904233152 | 83 | 197 | 0.9 | 5.2 | 0.00 | 0.04 | 0.04 | 49 | 1011.4 |
| 20260904232653 | 83 | 238 | 1.7 | 9.6 | 0.00 | 0.04 | 0.04 | 49 | 1011.4 |
| 20260904232152 | 83 | 312 | 0.0 | 9.6 | 0.00 | 0.04 | 0.04 | 49 | 1011.3 |
| 20260904231653 | 83 | 282 | 0.0 | 5.2 | 0.00 | 0.04 | 0.04 | 48 | 1011.3 |
| 20260904231153 | 84 | 338 | 0.9 | 5.2 | 0.00 | 0.04 | 0.04 | 47 | 1011.3 |
| 20260904230652 | 84 | 276 | 2.6 | 5.2 | 0.00 | 0.04 | 0.04 | 47 | 1011.2 |
| 20260904230152 | 85 | 17 | 1.7 | 5.2 | 0.00 | 0.04 | 0.04 | 47 | 1011.3 |
| 20260904225652 | 85 | 317 | 0.9 | 5.2 | 0.00 | 0.04 | 0.04 | 46 | 1011.3 |
| 20260904225152 | 85 | 176 | 0.0 | 4.3 | 0.00 | 0.04 | 0.04 | 46 | 1011.3 |
| 20260904224652 | 85 | 128 | 0.9 | 4.3 | 0.00 | 0.04 | 0.04 | 46 | 1011.3 |
| 20260904224153 | 85 | 269 | 2.6 | 3.5 | 0.00 | 0.04 | 0.04 | 46 | 1011.3 |
| 20260904223652 | 85 | 310 | 2.6 | 4.3 | 0.00 | 0.04 | 0.04 | 46 | 1011.3 |
| 20260904222752 | 85 | 299 | 0.9 | 5.2 | 0.00 | 0.04 | 0.04 | 45 | 1011.3 |
| 20260904222253 | 85 | 52 | 0.0 | 4.3 | 0.00 | 0.04 | 0.04 | 45 | 1011.4 |
| 20260904221752 | 85 | 176 | 0.0 | 4.3 | 0.00 | 0.04 | 0.04 | 44 | 1011.4 |
| 20260904221252 | 86 | 55 | 0.9 | 4.3 | 0.00 | 0.04 | 0.04 | 44 | 1011.4 |
| 20260904220752 | 86 | 223 | 2.6 | 4.3 | 0.00 | 0.04 | 0.04 | 44 | 1011.4 |
| 20260904220252 | 86 | 236 | 0.9 | 4.3 | 0.00 | 0.04 | 0.04 | 44 | 1011.4 |
| 20260904215752 | 87 | 238 | 0.0 | 0.0 | 0.00 | 0.04 | 0.04 | 41 | 1011.4 |
| 20260904215252 | 89 | 277 | 0.0 | 1.7 | 0.00 | 0.04 | 0.04 | 40 | 1011.4 |
| 20260904214252 | 90 | 20 | 0.0 | 5.2 | 0.00 | 0.04 | 0.04 | 40 | 1011.5 |
| 20260904213752 | 90 | 82 | 0.9 | 1.7 | 0.00 | 0.04 | 0.04 | 40 | 1011.5 |
| 20260904213252 | 90 | 303 | 0.0 | 1.7 | 0.00 | 0.04 | 0.04 | 40 | 1011.4 |
| 20260904212752 | 90 | 311 | 0.0 | 2.6 | 0.00 | 0.04 | 0.04 | 39 | 1011.5 |
| 20260904212252 | 90 | 315 | 0.0 | 4.3 | 0.04 | 0.04 | 0.04 | 38 | 1011.5 |
| 20260904211752 | 90 | 41 | 0.0 | 4.3 | 0.04 | 0.04 | 0.04 | 37 | 1011.6 |
| 20260904211252 | 90 | 9 | 0.0 | 1.7 | 0.04 | 0.04 | 0.04 | 36 | 1011.7 |
| 20260904210752 | 90 | 340 | 0.0 | 2.6 | 0.04 | 0.04 | 0.04 | 36 | 1011.6 |
| 20260904205752 | 91 | 57 | 0.0 | 3.5 | 0.04 | 0.04 | 0.04 | 34 | 1011.7 |
| 20260904205252 | 90 | 296 | 0.0 | 4.3 | 0.04 | 0.04 | 0.04 | 35 | 1011.7 |
| 20260904204752 | 90 | 267 | 1.7 | 4.3 | 0.04 | 0.04 | 0.04 | 34 | 1011.7 |
| 20260904204252 | 90 | 113 | 0.0 | 1.7 | 0.04 | 0.04 | 0.04 | 34 | 1011.8 |
| 20260904203753 | 90 | 344 | 0.0 | 0.0 | 0.04 | 0.04 | 0.04 | 35 | 1011.9 |
| 20260904203252 | 91 | 346 | 0.0 | 0.0 | 0.04 | 0.04 | 0.04 | 35 | 1011.9 |
| 20260904202752 | 91 | 15 | 0.0 | 0.0 | 0.04 | 0.04 | 0.04 | 33 | 1011.9 |
| 20260904201752 | 87 | 218 | 0.0 | 0.0 | 0.00 | 0.00 | 0.00 | 37 | 1011.9 |
| 20260904201252 | 87 | 218 | 0.0 | 0.0 | 0.00 | 0.00 | 0.00 | 36 | 1012.0 |
| 20260904200752 | 86 | 218 | 0.0 | 0.0 | 0.00 | 0.00 | 0.00 | 37 | 1012.0 |
| 20260904200252 | 87 | 218 | 0.0 | 0.0 | 0.00 | 0.00 | 0.00 | 36 | 1012.0 |
| 20260904195752 | 87 | 218 | 0.0 | 0.0 | 0.00 | 0.00 | 0.00 | 36 | 1012.0 |
| 20260904195252 | 86 | 218 | 0.0 | 0.0 | 0.00 | 0.00 | 0.00 | 36 | 1012.2 |
| 20260904194752 | 86 | 218 | 0.0 | 0.0 | 0.00 | 0.00 | 0.00 | 36 | 1012.2 |
| 20260904194252 | 86 | 218 | 0.0 | 0.0 | 0.00 | 0.00 | 0.00 | 35 | 1012.3 |
| 20260904192752 | 84 | 218 | 0.0 | 0.0 | 0.00 | 0.00 | 0.00 | 35 | 1012.4 |
| 20260904192252 | 83 | 218 | 0.0 | 0.0 | 0.00 | 0.00 | 0.00 | 35 | 1012.4 |
| 20260904191752 | 83 | 218 | 0.0 | 0.0 | 0.00 | 0.00 | 0.00 | 34 | 1012.5 |
| 20260904191252 | 83 | 218 | 0.0 | 0.0 | 0.00 | 0.00 | 0.00 | 33 | 1012.7 |
| 20260904190752 | 82 | 218 | 0.0 | 0.0 | 0.00 | 0.00 | 0.00 | 33 | 1012.8 |
| 20260904190252 | 82 | 218 | 0.0 | 0.0 | 0.00 | 0.00 | 0.00 | 32 | 1012.9 |
| 20260904185252 | 81 | 218 | 0.0 | 0.0 | 0.00 | 0.00 | 0.00 | 29 | 1012.9 |
| 20260904184751 | 81 | 218 | 0.0 | 0.0 | 0.00 | 0.00 | 0.00 | 28 | 1012.9 |
| 20260904184252 | 80 | 218 | 0.0 | 0.0 | 0.00 | 0.00 | 0.00 | 27 | 1013.0 |
| 20260904183751 | 80 | 218 | 0.0 | 0.0 | 0.00 | 0.00 | 0.00 | 26 | 1013.1 |
| 20260904183251 | 79 | 218 | 0.0 | 0.0 | 0.00 | 0.00 | 0.00 | 25 | 1013.1 |
| 20260904182752 | 79 | 218 | 0.0 | 0.0 | 0.00 | 0.00 | 0.00 | 24 | 1013.1 |
| 20260904182251 | 78 | 218 | 0.0 | 0.0 | 0.00 | 0.00 | 0.00 | 23 | 1013.1 |
| 20260904181752 | 77 | 218 | 0.0 | 0.0 | 0.00 | 0.00 | 0.00 | 23 | 1013.2 |
| 20260904181251 | 77 | 218 | 0.0 | 0.0 | 0.00 | 0.00 | 0.00 | 23 | 1013.3 |
| 20260904180751 | 77 | 218 | 0.0 | 0.0 | 0.00 | 0.00 | 0.00 | 22 | 1013.3 |
| 20260904180251 | 76 | 218 | 0.0 | 0.0 | 0.00 | 0.00 | 0.00 | 21 | 1013.3 |
| 20260904175752 | 75 | 218 | 0.0 | 0.0 | 0.00 | 0.00 | 0.00 | 21 | 1013.2 |
| 20260904175251 | 75 | 218 | 0.0 | 0.0 | 0.00 | 0.00 | 0.00 | 21 | 1013.2 |
| 20260904174752 | 74 | 218 | 0.0 | 0.0 | 0.00 | 0.00 | 0.00 | 21 | 1013.4 |
| 20260904174251 | 74 | 218 | 0.0 | 0.0 | 0.00 | 0.00 | 0.00 | 20 | 1013.5 |
| 20260904173251 | 73 | 218 | 0.0 | 0.0 | 0.00 | 0.00 | 0.00 | 19 | 1013.5 |
| 20260904172751 | 73 | 218 | 0.0 | 0.0 | 0.00 | 0.00 | 0.00 | 19 | 1013.4 |
| 20260904172251 | 72 | 218 | 0.0 | 0.0 | 0.00 | 0.00 | 0.00 | 18 | 1013.4 |
| 20260904171752 | 72 | 218 | 0.0 | 0.0 | 0.00 | 0.00 | 0.00 | 18 | 1013.3 |
| 20260904171252 | 72 | 218 | 0.0 | 0.0 | 0.00 | 0.00 | 0.00 | 17 | 1013.3 |
| 20260904170751 | 71 | 218 | 0.0 | 0.0 | 0.00 | 0.00 | 0.00 | 17 | 1013.3 |
| 20260904170251 | 71 | 218 | 0.0 | 0.0 | 0.00 | 0.00 | 0.00 | 16 | 1013.4 |
| 20260904165751 | 70 | 218 | 0.0 | 0.0 | 0.00 | 0.00 | 0.00 | 16 | 1013.4 |
| 20260904165251 | 70 | 218 | 0.0 | 0.0 | 0.00 | 0.00 | 0.00 | 15 | 1013.3 |
| 20260904164752 | 69 | 218 | 0.0 | 0.0 | 0.00 | 0.00 | 0.00 | 14 | 1013.4 |
| 20260904164251 | 69 | 218 | 0.0 | 0.0 | 0.00 | 0.00 | 0.00 | 14 | 1013.4 |
| 20260904163751 | 68 | 218 | 0.0 | 0.0 | 0.00 | 0.00 | 0.00 | 13 | 1013.3 |
| 20260904163251 | 68 | 218 | 0.0 | 0.0 | 0.00 | 0.00 | 0.00 | 12 | 1013.2 |
| 20260904162751 | 67 | 218 | 0.0 | 0.0 | 0.00 | 0.00 | 0.00 | 12 | 1013.2 |
| 20260904162251 | 67 | 218 | 0.0 | 0.0 | 0.00 | 0.00 | 0.00 | 11 | 1013.2 |
| 20260904161751 | 66 | 218 | 0.0 | 0.0 | 0.00 | 0.00 | 0.00 | 11 | 1013.2 |
| 20260904161251 | 66 | 218 | 0.0 | 0.0 | 0.00 | 0.00 | 0.00 | 10 | 1013.3 |
| 20260904160751 | 65 | 218 | 0.0 | 0.0 | 0.00 | 0.00 | 0.00 | 10 | 1013.3 |
| 20260904160251 | 65 | 218 | 0.0 | 0.0 | 0.00 | 0.00 | 0.00 | 9 | 1013.3 |
| 20260904155251 | 65 | 218 | 0.0 | 0.0 | 0.00 | 0.00 | 0.00 | 8 | 1013.3 |
| 20260904154750 | 64 | 218 | 0.0 | 0.0 | 0.00 | 0.00 | 0.00 | 8 | 1013.2 |
| 20260904154251 | 64 | 218 | 0.0 | 0.0 | 0.00 | 0.00 | 0.00 | 8 | 1013.2 |
| 20260904153750 | 64 | 218 | 0.0 | 0.0 | 0.00 | 0.00 | 0.00 | 7 | 1013.2 |
| 20260904153250 | 64 | 218 | 0.0 | 0.0 | 0.00 | 0.00 | 0.00 | 7 | 1013.2 |
| 20260904152750 | 64 | 218 | 0.0 | 0.0 | 0.00 | 0.00 | 0.00 | 7 | 1013.2 |
| 20260904151751 | 64 | 218 | 0.0 | 0.0 | 0.00 | 0.00 | 0.00 | 6 | 1013.2 |
| 20260904151250 | 63 | 218 | 0.0 | 0.0 | 0.00 | 0.00 | 0.00 | 6 | 1013.1 |
| 20260904150750 | 63 | 218 | 0.0 | 0.0 | 0.00 | 0.00 | 0.00 | 6 | 1013.0 |
| 20260904150250 | 63 | 218 | 0.0 | 0.0 | 0.00 | 0.00 | 0.00 | 5 | 1013.0 |
| 20260904145750 | 63 | 218 | 0.0 | 0.0 | 0.00 | 0.00 | 0.00 | 5 | 1013.0 |
| 20260904144750 | 63 | 218 | 0.0 | 0.0 | 0.00 | 0.00 | 0.00 | 5 | 1012.9 |
| 20260904144250 | 63 | 218 | 0.0 | 0.0 | 0.00 | 0.00 | 0.00 | 5 | 1012.8 |
| 20260904143750 | 63 | 218 | 0.0 | 0.0 | 0.00 | 0.00 | 0.00 | 5 | 1012.7 |
| 20260904143249 | 62 | 218 | 0.0 | 0.0 | 0.00 | 0.00 | 0.00 | 5 | 1012.7 |
| 20260904142750 | 62 | 218 | 0.0 | 0.0 | 0.00 | 0.00 | 0.00 | 5 | 1012.7 |
| 20260904142250 | 62 | 218 | 0.0 | 0.0 | 0.00 | 0.00 | 0.00 | 5 | 1012.7 |
| 20260904141750 | 62 | 218 | 0.0 | 0.0 | 0.00 | 0.00 | 0.00 | 5 | 1012.6 |
| 20260904141249 | 62 | 218 | 0.0 | 0.0 | 0.00 | 0.00 | 0.00 | 5 | 1012.6 |
| 20260904140749 | 62 | 218 | 0.0 | 0.0 | 0.00 | 0.00 | 0.00 | 5 | 1012.6 |
| 20260904140249 | 62 | 218 | 0.0 | 0.0 | 0.00 | 0.00 | 0.00 | 5 | 1012.5 |
| 20260904135750 | 61 | 218 | 0.0 | 0.0 | 0.00 | 0.00 | 0.00 | 5 | 1012.6 |
| 20260904135250 | 61 | 218 | 0.0 | 0.0 | 0.00 | 0.00 | 0.00 | 5 | 1012.5 |
| 20260904134750 | 61 | 218 | 0.0 | 0.0 | 0.00 | 0.00 | 0.00 | 5 | 1012.5 |
| 20260904134249 | 61 | 218 | 0.0 | 0.0 | 0.00 | 0.00 | 0.00 | 5 | 1012.5 |
| 20260904133749 | 61 | 218 | 0.0 | 0.0 | 0.00 | 0.00 | 0.00 | 5 | 1012.5 |
| 20260904133249 | 61 | 218 | 0.0 | 0.0 | 0.00 | 0.00 | 0.00 | 5 | 1012.5 |
| 20260904132749 | 61 | 218 | 0.0 | 0.0 | 0.00 | 0.00 | 0.00 | 5 | 1012.5 |
| 20260904132249 | 61 | 218 | 0.0 | 0.0 | 0.00 | 0.00 | 0.00 | 5 | 1012.4 |
| 20260904131749 | 61 | 218 | 0.0 | 0.0 | 0.00 | 0.00 | 0.00 | 5 | 1012.3 |
| 20260904131249 | 61 | 218 | 0.0 | 0.0 | 0.00 | 0.00 | 0.00 | 5 | 1012.3 |
| 20260904130749 | 61 | 218 | 0.0 | 0.0 | 0.00 | 0.00 | 0.00 | 5 | 1012.3 |
| 20260904130249 | 61 | 218 | 0.0 | 0.0 | 0.00 | 0.00 | 0.00 | 5 | 1012.3 |
| 20260904125749 | 61 | 218 | 0.0 | 0.0 | 0.00 | 0.00 | 0.00 | 5 | 1012.4 |
| 20260904124749 | 60 | 218 | 0.0 | 0.0 | 0.00 | 0.00 | 0.00 | 5 | 1012.3 |
| 20260904124248 | 60 | 218 | 0.0 | 0.0 | 0.00 | 0.00 | 0.00 | 5 | 1012.4 |
| 20260904123748 | 60 | 218 | 0.0 | 0.0 | 0.00 | 0.00 | 0.00 | 5 | 1012.2 |
| 20260904122749 | 60 | 218 | 0.0 | 0.0 | 0.00 | 0.00 | 0.00 | 6 | 1012.2 |
| 20260904122248 | 60 | 218 | 0.0 | 0.0 | 0.00 | 0.00 | 0.00 | 6 | 1012.2 |
| 20260904121248 | 60 | 218 | 0.0 | 0.0 | 0.00 | 0.00 | 0.00 | 6 | 1012.2 |
| 20260904120749 | 59 | 218 | 0.0 | 0.0 | 0.00 | 0.00 | 0.00 | 6 | 1012.2 |
| 20260904120248 | 59 | 218 | 0.0 | 0.0 | 0.00 | 0.00 | 0.00 | 6 | 1012.2 |
| 20260904115748 | 59 | 218 | 0.0 | 0.0 | 0.00 | 0.00 | 0.00 | 6 | 1012.4 |
| 20260904115249 | 59 | 218 | 0.0 | 0.0 | 0.00 | 0.00 | 0.00 | 6 | 1012.3 |
| 20260904114748 | 59 | 218 | 0.0 | 0.0 | 0.00 | 0.00 | 0.00 | 6 | 1012.4 |
| 20260904114248 | 59 | 218 | 0.0 | 0.0 | 0.00 | 0.00 | 0.00 | 6 | 1012.5 |
| 20260904113749 | 59 | 218 | 0.0 | 0.0 | 0.00 | 0.00 | 0.00 | 6 | 1012.3 |
| 20260904113248 | 58 | 218 | 0.0 | 0.0 | 0.00 | 0.00 | 0.00 | 6 | 1012.3 |
| 20260904112748 | 58 | 218 | 0.0 | 0.0 | 0.00 | 0.00 | 0.00 | 6 | 1012.3 |
| 20260904112248 | 58 | 218 | 0.0 | 0.0 | 0.00 | 0.00 | 0.00 | 6 | 1012.3 |
| 20260904111748 | 58 | 218 | 0.0 | 0.0 | 0.00 | 0.00 | 0.00 | 6 | 1012.3 |
| 20260904111249 | 58 | 218 | 0.0 | 0.0 | 0.00 | 0.00 | 0.00 | 6 | 1012.3 |
| 20260904110748 | 58 | 218 | 0.0 | 0.0 | 0.00 | 0.00 | 0.00 | 6 | 1012.3 |
| 20260904110248 | 58 | 218 | 0.0 | 0.0 | 0.00 | 0.00 | 0.00 | 6 | 1012.4 |
| 20260904105748 | 59 | 218 | 0.0 | 0.0 | 0.00 | 0.00 | 0.00 | 6 | 1012.4 |
| 20260904104748 | 59 | 218 | 0.0 | 0.0 | 0.00 | 0.00 | 0.00 | 6 | 1012.4 |
| 20260904104248 | 59 | 218 | 0.0 | 0.0 | 0.00 | 0.00 | 0.00 | 6 | 1012.3 |
| 20260904103748 | 59 | 218 | 0.0 | 0.0 | 0.00 | 0.00 | 0.00 | 6 | 1012.4 |
| 20260904103248 | 59 | 218 | 0.0 | 0.0 | 0.00 | 0.00 | 0.00 | 6 | 1012.4 |
| 20260904102748 | 60 | 218 | 0.0 | 0.0 | 0.00 | 0.00 | 0.00 | 6 | 1012.3 |
| 20260904101748 | 60 | 218 | 0.0 | 0.0 | 0.00 | 0.00 | 0.00 | 6 | 1012.3 |
| 20260904101248 | 60 | 218 | 0.0 | 0.0 | 0.00 | 0.00 | 0.00 | 6 | 1012.4 |
| 20260904100748 | 60 | 218 | 0.0 | 0.0 | 0.00 | 0.00 | 0.00 | 6 | 1012.3 |
| 20260904100248 | 61 | 218 | 0.0 | 0.0 | 0.00 | 0.00 | 0.00 | 6 | 1012.2 |
| 20260904095748 | 61 | 218 | 0.0 | 0.0 | 0.00 | 0.00 | 0.00 | 6 | 1012.3 |
| 20260904095247 | 61 | 218 | 0.0 | 0.0 | 0.00 | 0.00 | 0.00 | 6 | 1012.3 |
| 20260904093748 | 62 | 218 | 0.0 | 0.0 | 0.00 | 0.00 | 0.00 | 6 | 1012.3 |
| 20260904093248 | 62 | 218 | 0.0 | 0.0 | 0.00 | 0.00 | 0.00 | 6 | 1012.2 |
| 20260904092747 | 62 | 218 | 0.0 | 0.0 | 0.00 | 0.00 | 0.00 | 6 | 1012.3 |
| 20260904091747 | 62 | 218 | 0.0 | 0.0 | 0.00 | 0.00 | 0.00 | 6 | 1012.3 |
| 20260904091248 | 62 | 218 | 0.0 | 0.0 | 0.00 | 0.00 | 0.00 | 6 | 1012.3 |
| 20260904090747 | 62 | 218 | 0.0 | 0.0 | 0.00 | 0.00 | 0.00 | 7 | 1012.3 |
| 20260904090247 | 62 | 218 | 0.0 | 0.0 | 0.00 | 0.00 | 0.00 | 7 | 1012.3 |
| 20260904085747 | 62 | 218 | 0.0 | 0.0 | 0.00 | 0.00 | 0.00 | 7 | 1012.4 |
| 20260904085247 | 62 | 218 | 0.0 | 0.0 | 0.00 | 0.00 | 0.00 | 7 | 1012.4 |
| 20260904084747 | 62 | 218 | 0.0 | 0.0 | 0.00 | 0.00 | 0.00 | 7 | 1012.5 |
| 20260904084247 | 62 | 218 | 0.0 | 0.0 | 0.00 | 0.00 | 0.00 | 7 | 1012.5 |
| 20260904083247 | 62 | 218 | 0.0 | 0.0 | 0.00 | 0.00 | 0.00 | 8 | 1012.6 |
| 20260904082247 | 62 | 218 | 0.0 | 0.0 | 0.00 | 0.00 | 0.00 | 8 | 1012.6 |
| 20260904081747 | 62 | 218 | 0.0 | 0.0 | 0.00 | 0.00 | 0.00 | 8 | 1012.6 |
| 20260904080747 | 63 | 218 | 0.0 | 0.0 | 0.00 | 0.00 | 0.00 | 8 | 1012.5 |
| 20260904075747 | 63 | 218 | 0.0 | 0.0 | 0.00 | 0.00 | 0.00 | 8 | 1012.6 |
| 20260904075247 | 63 | 218 | 0.0 | 0.0 | 0.00 | 0.00 | 0.00 | 8 | 1012.6 |
| 20260904074747 | 64 | 218 | 0.0 | 0.0 | 0.00 | 0.00 | 0.00 | 8 | 1012.6 |
| 20260904074247 | 64 | 218 | 0.0 | 0.0 | 0.00 | 0.00 | 0.00 | 8 | 1012.5 |
| 20260904073746 | 64 | 218 | 0.0 | 0.0 | 0.00 | 0.00 | 0.00 | 7 | 1012.5 |
| 20260904073246 | 64 | 218 | 0.0 | 0.0 | 0.00 | 0.00 | 0.00 | 7 | 1012.5 |
| 20260904072747 | 64 | 218 | 0.0 | 0.0 | 0.00 | 0.00 | 0.00 | 7 | 1012.5 |
| 20260904072246 | 64 | 218 | 0.0 | 0.0 | 0.00 | 0.00 | 0.00 | 7 | 1012.5 |